Kyiv, Ukraine

6:04 PM EEST on June 22, 2018 (GMT +0300)
Zhuliany

Weather History for UKKK - June, 2018

Change the Weather History Date:

Thursday, June 14, 2018

  Actual Average (UKBB) Record (UKBB)
Temperature  
Mean Temperature 74 °F -  
Max Temperature 85 °F 73 °F 93 °F (1998)
Min Temperature 64 °F 53 °F 44 °F (2001)
Cooling Degree Days 10    
Growing Degree Days 24 (Base 50)    
Moisture  
Dew Point 60 °F    
Average Humidity 66    
Maximum Humidity 100    
Minimum Humidity 31    
Precipitation  
Precipitation 0.63 in 0.10 in - ()
Sea Level Pressure  
Sea Level Pressure 29.76 in    
Wind  
Wind Speed 6 mph ()    
Max Wind Speed 18 mph    
Max Gust Speed 36 mph    
Visibility 7.6 miles    
Events Rain , Thunderstorm    
Averages and records for this station are not official NWS values.
T = Trace of Precipitation, MM = Missing Value Source: Averaged Metar Reports

Daily Weather History Graph

Daily Weather History Graph

Search for Another Location

Airport or City:

Astronomy

Jun. 14, 2018 Rise Set
Actual Time 4:46 AM EEST 9:10 PM EEST
Civil Twilight 4:01 AM EEST 9:55 PM EEST
Nautical Twilight 2:54 AM EEST 11:02 PM EEST
Astronomical Twilight 1:30 AM EEST 12:26 AM EEST
Moon 5:32 AM EEST (6/14) 9:43 PM EEST (6/14)
Length of Visible Light 17h 54m
Length of Day
16h 24m
New Moon, 0% of the Moon is Illuminated
Jun 14
New Moon
Jun 20
First Quarter
Jun 28
Full
Jul 6
Last Quarter
Jul 13
New

Hourly Weather History & Observations

Time (EEST) Temp. Heat Index Dew Point Humidity Pressure Visibility Wind Dir Wind Speed Gust Speed Precip Events Conditions
12:00 AM 64.4 °F - 59.0 °F 83% 29.74 in - East 2.2 mph - N/A   Clear
12:30 AM 64.4 °F - 59.0 °F 83% 29.77 in - East 2.2 mph - N/A   Clear
1:00 AM 64.4 °F - 57.2 °F 77% 29.77 in - ENE 4.5 mph - N/A   Clear
1:30 AM 64.4 °F - 57.2 °F 77% 29.74 in - East 4.5 mph - N/A   Clear
2:00 AM 62.6 °F - 57.2 °F 82% 29.77 in - East 4.5 mph - N/A   Clear
2:30 AM 66.2 °F - 57.2 °F 73% 29.77 in - ESE 6.7 mph - N/A   Clear
3:00 AM 66 °F - 58 °F 70% 29.76 in 12 mi South 2.2 mph - -  
3:00 AM 62.6 °F - 57.2 °F 82% 29.77 in - East 4.5 mph - N/A   Clear
3:30 AM 62.6 °F - 57.2 °F 82% 29.74 in - East 6.7 mph - N/A   Clear
4:00 AM 62.6 °F - 57.2 °F 82% 29.74 in - East 4.5 mph - N/A   Clear
4:30 AM 62.6 °F - 57.2 °F 82% 29.77 in - East 2.2 mph - N/A   Clear
5:00 AM 60.8 °F - 57.2 °F 88% 29.77 in - Calm Calm - N/A   Clear
5:30 AM 62.6 °F - 59.0 °F 88% 29.77 in - East 2.2 mph - N/A   Clear
6:00 AM 66 °F - 59 °F 72% 29.76 in 12 mi Calm Calm - -  
6:00 AM 62.6 °F - 59.0 °F 88% 29.77 in - East 4.5 mph - N/A   Clear
6:30 AM 68.0 °F - 60.8 °F 78% 29.77 in - ENE 4.5 mph - N/A   Clear
7:00 AM 69.8 °F - 62.6 °F 78% 29.77 in - East 4.5 mph - N/A   Clear
7:30 AM 71.6 °F - 60.8 °F 69% 29.77 in - East 4.5 mph - N/A   Clear
8:00 AM 71.6 °F - 60.8 °F 69% 29.77 in - East 6.7 mph - N/A   Clear
8:30 AM 73.4 °F - 62.6 °F 69% 29.77 in - East 6.7 mph - N/A   Clear
9:00 AM 74 °F - 63 °F 59% 29.77 in 12 mi SSE 4.5 mph - -   Scattered Clouds
9:00 AM 75.2 °F - 62.6 °F 65% 29.77 in - ESE 8.9 mph - N/A   Clear
9:30 AM 75.2 °F - 62.6 °F 65% 29.77 in - ESE 8.9 mph - N/A   Clear
10:00 AM 78.8 °F - 62.6 °F 57% 29.77 in - ESE 8.9 mph - N/A   Clear
10:30 AM 77.0 °F - 60.8 °F 57% 29.77 in 6.2 mi SE 8.9 mph - N/A   Partly Cloudy
11:00 AM 78.8 °F - 59.0 °F 51% 29.80 in 6.2 mi East 8.9 mph - N/A   Partly Cloudy
11:30 AM 80.6 °F 81.1 °F 59.0 °F 48% 29.80 in - ESE 8.9 mph - N/A   Clear
12:00 PM 80 °F - 58 °F 36% 29.78 in 12 mi South 4.5 mph - -   Scattered Clouds
12:00 PM 80.6 °F 81.1 °F 59.0 °F 48% 29.80 in - SE 6.7 mph - N/A   Clear
12:30 PM 78.8 °F - 57.2 °F 47% 29.80 in - SE 8.9 mph - N/A   Clear
1:00 PM 80.6 °F 80.8 °F 57.2 °F 45% 29.80 in - ESE 11.2 mph - N/A   Clear
1:30 PM 82.4 °F 82.0 °F 57.2 °F 42% 29.77 in - ESE 8.9 mph - N/A   Clear
2:00 PM 82.4 °F 82.5 °F 59.0 °F 45% 29.77 in - ESE 11.2 mph - N/A   Clear
2:30 PM 82.4 °F 82.5 °F 59.0 °F 45% 29.77 in - ESE 11.2 mph - N/A   Clear
3:00 PM 82 °F - 56 °F 31% 29.74 in 12 mi ESE 6.7 mph - -   Mostly Cloudy
3:00 PM 82.4 °F 82.5 °F 59.0 °F 45% 29.77 in - East 11.2 mph - N/A   Clear
3:30 PM 82.4 °F 82.5 °F 59.0 °F 45% 29.74 in - ESE 11.2 mph - N/A   Clear
4:00 PM 84.2 °F 84.4 °F 60.8 °F 45% 29.74 in - ESE 11.2 mph - N/A   Clear
4:30 PM 80.6 °F 81.1 °F 59.0 °F 48% 29.74 in - ESE 8.9 mph - N/A   Clear
5:00 PM 80.6 °F 81.1 °F 59.0 °F 48% 29.74 in - ESE 8.9 mph - N/A   Clear
5:30 PM 80.6 °F 81.1 °F 59.0 °F 48% 29.74 in - East 11.2 mph - N/A   Clear
6:00 PM 80 °F - 59 °F 38% 29.72 in 12 mi South 4.5 mph - -   Scattered Clouds
6:00 PM 80.6 °F 81.5 °F 60.8 °F 51% 29.74 in - ESE 8.9 mph - N/A   Clear
6:30 PM 80.6 °F 81.8 °F 62.6 °F 54% 29.71 in - ESE 11.2 mph - N/A   Clear
7:00 PM 78.8 °F - 62.6 °F 57% 29.71 in - ESE 13.4 mph - N/A   Clear
7:30 PM 77.0 °F - 62.6 °F 61% 29.74 in - ESE 11.2 mph - N/A   Clear
8:00 PM 77.0 °F - 62.6 °F 61% 29.74 in - ESE 8.9 mph - N/A   Clear
8:21 PM 77.0 °F - 64.4 °F 65% 29.74 in 5.6 mi ESE 13.4 mph - N/A Rain , Thunderstorm Light Thunderstorms and Rain
8:30 PM 73.4 °F - 66.2 °F 78% 29.74 in 4.3 mi East 13.4 mph - N/A Rain , Thunderstorm Light Thunderstorms and Rain
8:41 PM 71.6 °F - 66.2 °F 83% 29.74 in 6.2 mi East 17.9 mph 35.8 mph N/A Rain , Thunderstorm Light Thunderstorms and Rain
9:00 PM 66 °F - 60 °F 74% 29.76 in 2 mi WNW 15.7 mph - - Rain , Thunderstorm Heavy Thunderstorms and Rain
9:00 PM 66.2 °F - 62.6 °F 88% 29.77 in 4.3 mi WSW 17.9 mph 29.1 mph N/A Rain , Thunderstorm Thunderstorms and Rain
9:30 PM 66.2 °F - 62.6 °F 88% 29.77 in 5.6 mi NNW 4.5 mph - N/A Rain , Thunderstorm Light Thunderstorms and Rain
10:00 PM 66.2 °F - 64.4 °F 94% 29.77 in 5.0 mi Variable 2.2 mph - N/A Rain , Thunderstorm Light Thunderstorms and Rain
10:30 PM 64.4 °F - 64.4 °F 100% 29.77 in 6.2 mi South 4.5 mph - N/A Rain , Thunderstorm Light Rain Showers
11:00 PM 64.4 °F - 64.4 °F 100% 29.71 in 6.2 mi ESE 4.5 mph - N/A Rain Light Rain Showers
11:30 PM 64.4 °F - 64.4 °F 100% 29.71 in 6.2 mi ESE 6.7 mph - N/A   Scattered Clouds